Terminal Aerodrome Forecast
Issued by NWS

Home | Current Version | Previous Version | Text Only | Print | Product List | Glossary On
Versions: 1 2 3 4 5 6 7 8 9 10 11 12 13 14 15 16 17 18 19 20
691
FTUS45 KABQ 042337
TAFTCC
TAF
KTCC 042337Z 0500/0524 20008KT P6SM SKC
     FM050400 25010KT P6SM SKC
     FM051800 25013G23KT P6SM FEW200
     FM052100 26021G33KT P6SM FEW200=

USA.gov is the U.S. government's official web portal to all federal, state and local government web resources and services.